Miscellaneous Local Product
Issued by NWS North Platte, NE

Home | Current Version | Previous Version | Text Only | Print | Product List | Glossary On
Versions: 1 2 3 4 5 6 7 8 9 10 11 12 13 14 15 16 17 18 19 20 21 22 23 24 25 26 27 28 29 30 31 32 33 34 35 36 37 38 39 40 41 42 43 44 45 46 47 48 49 50
372
AXUS43 KLBF 040810
MISLBF


WESTERN AND NORTH CENTRAL NEBRASKA HOURLY WEATHER ROUNDUP
NATIONAL WEATHER SERVICE NORTH PLATTE NE
300 AM CDT WED MAY 04 2016

NOTE: "FAIR" INDICATES FEW OR NO CLOUDS BELOW 12,000 FEET WITH NO
SIGNIFICANT WEATHER AND/OR OBSTRUCTIONS TO VISIBILITY.

NOTE: STATIONS NOT REPORTING VARIABLES SUCH AS SKY/WEATHER OR
PRESSURE ARE PROVIDED BY RAWS AND APRS NETWORKS AND ARE NOT UNDER
NATIONAL WEATHER SERVICE QUALITY CONTROL.

...OBSERVATIONS IN AND NEAR THE EASTERN PANHANDLE OF NEBRASKA...

CITY           SKY/WX    TMP DP  RH WIND       PRES   REMARKS
PINE RIDGE     CLEAR     40  35  83 E3        30.14R
CHADRON        CLEAR     42  39  89 SW7       30.15S
ALLIANCE       CLEAR     39  37  92 W9        30.15F WCI  33
SIDNEY         CLEAR     38  34  85 NW9       30.19S WCI  31
CRESCENT LAKE    N/A     47  39  74 W7          N/A
BIG SPRINGS      N/A     44  40  86 SW3         N/A
$$

...OBSERVATIONS IN NORTHERN NEBRASKA AND FAR SOUTHERN SOUTH DAKOTA...

CITY           SKY/WX    TMP DP  RH WIND       PRES   REMARKS
WINNER         FAIR      48  39  71 N3        30.08R
VALENTINE      CLEAR     46  39  76 NW6       30.09R
THEDFORD       CLEAR     47  41  79 W8        30.09S
AINSWORTH      CLEAR     47  40  76 NW5       30.08R
O`NEILL        PTCLDY    46  37  71 N8        30.04R
ORD            CLEAR     47  42  83 NW10      30.01S
BROKEN BOW     CLEAR     49  41  74 N9        30.04R
VALENTINE NWR    N/A     47  40  76 NW7         N/A
BUTTE            N/A     51  33  50 N8          N/A
HALSEY           N/A     50  40  67 NW5         N/A
CHAMBERS         N/A     48  38  69 CALM        N/A
EWING            N/A     50  37  61 CALM        N/A
$$

...OBSERVATIONS IN SOUTHWEST NEBRASKA AND FAR NORTHEAST COLORADO...

CITY           SKY/WX    TMP DP  RH WIND       PRES   REMARKS
HOLYOKE        FAIR      46  36  66 NW8       30.17R
IMPERIAL       CLEAR     48  37  65 NW8       30.13S
OGALLALA       CLEAR     41  38  89 W7        30.14R
NORTH PLATTE   CLEAR     41  38  89 NW9       30.08S
MCCOOK         CLEAR     46  39  76 W9        30.08S
LEXINGTON      CLEAR     47  41  78 NW8       30.05R
PAXTON           N/A     48  40  75 W3          N/A
STAPLETON        N/A     47  40  77 CALM        N/A
GOTHENBURG       N/A     48  37  65 W6          N/A
CALLAWAY         N/A     50  40  67 N9          N/A
$$

...OBSERVATIONS IN CENTRAL LINCOLN COUNTY AREA...

CITY           SKY/WX    TMP DP  RH WIND       PRES   REMARKS
N.P. AIRPORT   CLEAR     41  38  89 NW9       30.08S
N.P. DOWNTOWN    N/A     48  40  75 CALM        N/A
N.P. SOUTHEAST   N/A     48  39  71 NW3         N/A
N.P. HILLCREST   N/A     46  39  78 NW3         N/A
$$

...SOME OBSERVATIONS FROM AROUND THE REGION...

CITY           SKY/WX    TMP DP  RH WIND       PRES   REMARKS
DENVER         CLEAR     46  30  53 SW13      30.26S
LARAMIE        CLOUDY    31  29  92 CALM      30.31F
CHEYENNE       CLEAR     41  33  73 W12       30.27S
SCOTTSBLUFF    CLEAR     42  38  85 N3        30.18S
RAPID CITY     CLEAR     47  37  68 NW9       30.12S
BISMARCK       CLEAR     40  31  70 NE3       30.10S
PIERRE         CLEAR     46  33  60 NE5       30.07R
SIOUX FALLS    CLEAR     47  32  56 N13       29.97R
OMAHA          CLEAR     51  43  74 N7        29.89S
GRAND ISLAND   CLEAR     48  42  80 NW9       30.00S
KANSAS CITY    PTCLDY    54  43  66 W9        29.85F
WICHITA        CLEAR     50  43  77 W7        29.99F
OKLAHOMA CITY  CLEAR     50  50 100 SW5       30.03F
DALLAS         CLEAR     61  55  81 CALM      30.05F
AMARILLO       CLEAR     46  37  71 W6        30.19S
DODGE CITY     CLEAR     46  41  82 W10       30.09S
HAYS           CLEAR     45  36  70 NW6       30.05S
GOODLAND       CLEAR     43  35  73 W12       30.15R
$$




USA.gov is the U.S. government's official web portal to all federal, state and local government web resources and services.